STARLINK-11452, 62511

Orbit data source: Space-Track

STARLINK-11452, 62511 is a payload satellite owned by SpaceX/Seattle (US) in LEO that was launched on Wed, 08 Jan 2025 UTC via an FALCON 9 launch vehicle from the Air Force Eastern Test Range (AFETR). Payload-class satellites include a variety of spacecraft equipped with specific instruments for various scientific and technological missions. These include communications satellites like Starlink; space stations such as the ISS; scientific satellites like the Hubble; Earth observation satellites from companies like Planet Labs, Umbra, and HawkEye 360; GPS; miniature CubeSats for education and research; and military/defense satellites.

Loading next visibility...
Identifier
62511, 2025-004A
Orbit
LEO
Country
Flag of USUS
Related business
Manufacturer
SpaceX/Seattle
Mission
Operational Commercial Communications
Bus & Motor
STARLINK V2MD, Unknown motor
Mass
960 kg wet, ~910 kg dry
Launch date (UTC)
2025-01-08 (1 year ago)
Launch vehicle
FALCON 9
Launch site
Air Force Eastern Test Range (AFETR)
Object type
Payload
Rocket body
Debris
Shape & HBR
Box + 2 Pan, 18.1 m
Radar Cross Section
36.964 m², Large (>1 m²)

Expand to show TLE details & history
Last TLE update: 19 hours ago

TLE from 19 hours ago
0 STARLINK-11452
1 62511U 25004A   26094.85298298  .00321391  00000-0  24088-2 0  9991
2 62511  42.9992 272.9994 0001408 288.0825  71.9889 15.70877548 72249
Epoch: 2026-04-04T20:28Z
TLE epoch observation values (Epoch: 2026-04-04T20:28:17.729Z)
Latitude
-0.00003°
Longitude
132.75869°
Altitude
355.866 km
Speed
7.698 km/s
True Right ascension
18h 11m 59s
True Declination
0° 00' 00"
Sunlit
Object was in daylight at epoch
Visualization orbit readout
Latitude
Unknown
Longitude
Unknown
Altitude
Unknown
Speed
Unknown
Apparent Right ascension
Unknown
Apparent Declination
Unknown
Sunlit
N/A
Visualization observer readout
Local Sidereal Time
21:14:13
Azimuth
Unknown
Elevation
Unknown
Doppler factor
Unknown
Orbital elements
Apogee altitude
359.318 km
Perigee altitude
357.421 km
Semi-major axis
6,736.506 km
Eccentricity
0.00014
Inclination
42.9992°
RAAN
272.9994°
Arg. of periapsis
288.0825°
True anomaly
72.00424°
Mean anomaly
71.9889°
Eccentric anomaly
71.99657°
Mean motion
3.92546 °/min
Orbital period
91.71 mins
BSTAR
0.0024088
Loading maneuver chart data...
Computing Atmospheric mass density...
Loading historical data...
Loading historical data...
Loading historical data...
Loading historical data...
Loading historical data...
Loading historical data...
Loading historical data...

Documentation

Showing up to 5 results
|